Location: Most
(50.5133°N, 13.6207°E)
Time: 01:40:11
(UTC+02:00)

ISS - Visible Passes

Search period start: 22 October 2019 00:00
Search period end: 31 October 2019 23:00
Orbit: 411 x 421 km, 51.6° (Epoch: 21 October)

Date Brightness Start Highest point End Pass type
(mag) Time Alt. Az. Time Alt. Az. Time Alt. Az.
24 Oct -0.8 06:50:33 10° S 06:52:36 15° SE 06:54:38 10° ESE visible
26 Oct -1.9 06:48:48 10° SSW 06:51:47 30° SSE 06:54:47 10° E visible
27 Oct -1.4 05:00:46 10° SSW 05:03:19 21° SE 05:05:56 10° E visible
28 Oct -1.1 04:14:38 14° SE 04:14:53 14° SE 04:16:47 10° ESE visible
28 Oct -3.2 05:47:47 10° SW 05:51:05 57° SSE 05:54:24 10° ENE visible
29 Oct -2.7 05:01:14 27° SSW 05:02:31 40° SSE 05:05:43 10° E visible
30 Oct -1.7 04:14:50 25° ESE 04:14:50 25° ESE 04:16:56 10° E visible
30 Oct -3.8 05:47:44 15° WSW 05:50:28 90° SSE 05:53:51 10° ENE visible
31 Oct -3.7 05:01:13 55° SW 05:01:49 72° SSE 05:05:11 10° ENE visible
